QPF
0.00 0.00 0.00 0.00 0.00 0.00 0.00 0.00 0.00 0.00 0.00 0.00 0.00 0.00 0.00 0.00 0.00 0.00 0.00 0.00 0.00 0.00 0.00 0.00 0.00 0.00 0.00 0.00 0.00 0.00 0.00 0.00 0.00 0.00 0.00 0.00 0.00 0.00 0.00 0.00 0.00 0.00 0.00 0.00
0.00 0.00 0.00 0.00 0.00 0.00 0.00 0.00 0.00 0.00 0.00 0.00 0.00 0.00 0.00 0.00 0.00 0.00 0.00 0.00 0.00 0.00 0.00 0.00 0.00 0.00 0.00 0.00 0.00 0.00 0.00 0.00 0.00 0.00 0.00 0.00 0.00 0.00 0.00 0.00 0.00 0.00 0.00 0.00
0.00 0.00 0.00 0.00 0.00 0.00 0.00 0.00 0.00 0.00 0.00 0.00 0.00 0.00 0.00 0.00 0.00 0.00 0.00 0.00 0.00 0.00 0.00 0.00 0.00 0.00 0.00 0.00 0.00 0.00 0.00 0.00 0.00 0.00 0.00 0.00 0.00 0.00 0.00 0.00 0.00 0.00 0.00 0.00
0.00 0.00 0.00 0.00 0.00 0.00 0.00 0.00 0.00 0.00 0.00 0.00 0.00 0.00 0.00 0.00 0.00 0.00 0.00 0.00 0.00 0.00 0.00 0.00 0.00 0.00 0.00 0.00 0.00 0.00 0.00 0.00 0.00 0.00 0.00 0.00 0.00 0.00 0.00 0.00 0.00 0.00 0.00 0.00
0.00 0.00 0.00 0.00 0.00 0.00 0.00 0.00 0.00 0.00 0.00 0.00 0.00 0.00 0.00 0.00 0.00 0.00 0.00 0.00 0.00 0.00 0.00 0.00 0.00 0.00 0.00 0.00 0.00 0.00 0.00 0.00 0.00 0.00 0.00 0.00 0.00 0.00 0.00 0.00 0.00 0.00 0.00 0.00
0.00 0.00 0.00 0.00 0.00 0.00 0.00 0.00 0.00 0.00 0.00 0.00 0.00 0.00 0.00 0.00 0.00 0.00 0.00 0.00 0.00 0.00 0.00 0.00 0.00 0.00 0.00 0.00 0.00 0.00 0.00 0.00 0.00 0.00 0.00 0.00 0.00 0.00 0.00 0.00 0.00 0.00 0.00 0.00
0.00 0.00 0.00 0.00 0.00 0.00 0.00 0.00 0.00 0.00 0.00 0.00 0.00 0.00 0.00 0.00 0.00 0.00 0.00 0.00 0.00 0.00 0.00 0.00 0.00 0.00 0.00 0.00 0.00 0.00 0.00 0.00 0.00 0.00 0.00 0.00 0.00 0.00 0.00 0.00 0.00 0.00 0.00 0.00
0.00 0.00 0.00 0.00 0.00 0.00 0.00 0.00 0.00 0.00 0.00 0.00 0.00 0.00 0.00 0.00 0.00 0.00 0.00 0.00 0.00 0.00 0.00 0.00 0.00 0.00 0.00 0.00 0.00 0.00 0.00 0.00 0.00 0.00 0.00 0.00 0.00 0.00 0.00 0.00 0.00 0.00 0.00 0.00
0.00 0.00 0.00 0.00 0.00 0.00 0.00 0.00 0.00 0.00 0.00 0.00 0.00 0.00 0.00 0.00 0.00 0.00 0.00 0.00 0.00 0.00 0.00 0.00 0.00 0.00 0.00 0.00 0.00 0.00 0.00 0.00 0.00 0.00 0.00 0.00 0.00 0.00 0.00 0.00 0.00 0.00 0.00 0.00
0.00 0.00 0.00 0.00 0.00 0.00 0.00 0.00 0.00 0.00 0.00 0.00 0.00 0.00 0.00 0.00 0.00 0.00 0.00 0.00 0.00 0.00 0.00 0.00 0.00 0.00 0.00 0.00 0.00 0.00 0.00 0.00 0.00 0.00 0.00 0.00 0.00 0.00 0.00 0.00 0.00 0.00 0.00 0.00
0.00 0.00 0.00 0.00 0.00 0.00 0.00 0.00 0.00 0.00 0.00 0.00 0.00 0.00 0.00 0.00 0.00 0.00 0.00 0.00 0.00 0.00 0.00 0.00 0.00 0.00 0.00 0.00 0.00 0.00 0.00 0.00 0.00 0.00 0.00 0.00 0.00 0.00 0.00 0.00 0.00 0.00 0.00 0.00
0.00 0.00 0.00 0.00 0.00 0.00 0.00 0.00 0.00 0.00 0.00 0.00 0.01 0.00 0.00 0.00 0.00 0.00 0.00 0.00 0.00 0.00 0.00 0.00 0.00 0.00 0.00 0.00 0.00 0.00 0.00 0.00 0.00 0.00 0.00 0.00 0.00 0.00 0.00 0.00 0.00 0.00 0.00 0.00
0.00 0.00 0.00 0.00 0.00 0.00 0.00 0.00 0.00 0.01 0.03 0.02 0.02 0.01 0.00 0.00 0.00 0.00 0.00 0.00 0.00 0.00 0.00 0.00 0.00 0.00 0.00 0.00 0.00 0.00 0.00 0.00 0.00 0.00 0.00 0.00 0.00 0.00 0.00 0.00 0.00 0.00 0.00 0.00
0.00 0.00 0.00 0.00 0.00 0.00 0.00 0.00 0.01 0.02 0.03 0.01 0.01 0.00 0.00 0.00 0.00 0.00 0.00 0.00 0.00 0.00 0.00 0.00 0.00 0.00 0.00 0.01 0.01 0.00 0.01 0.01 0.01 0.01 0.01 0.00 0.00 0.00 0.00 0.00 0.00 0.00 0.00 0.00
0.00 0.00 0.00 0.00 0.00 0.00 0.00 0.00 0.00 0.00 0.00 0.01 0.01 0.01 0.02 0.01 0.00 0.00 0.00 0.00 0.00 0.00 0.00 0.00 0.00 0.00 0.00 0.00 0.00 0.01 0.01 0.02 0.02 0.01 0.00 0.00 0.00 0.00 0.00 0.00 0.00 0.00 0.00 0.00
0.00 0.00 0.00 0.00 0.00 0.00 0.00 0.00 0.00 0.00 0.00 0.00 0.01 0.01 0.01 0.00 0.00 0.00 0.00 0.00 0.00 0.00 0.00 0.00 0.01 0.01 0.01 0.01 0.01 0.02 0.03 0.03 0.01 0.00 0.00 0.00 0.00 0.00 0.00 0.00 0.00 0.00 0.00 0.00
0.00 0.00 0.00 0.00 0.00 0.00 0.00 0.00 0.00 0.00 0.00 0.00 0.00 0.00 0.00 0.00 0.00 0.00 0.00 0.00 0.00 0.00 0.01 0.02 0.03 0.04 0.04 0.04 0.04 0.03 0.02 0.01 0.00 0.00 0.00 0.00 0.00 0.00 0.00 0.00 0.00 0.00 0.00 0.00
0.00 0.00 0.00 0.00 0.00 0.00 0.00 0.00 0.00 0.00 0.00 0.00 0.00 0.00 0.00 0.00 0.00 0.00 0.00 0.00 0.00 0.01 0.02 0.04 0.07 0.09 0.11 0.13 0.13 0.10 0.07 0.04 0.01 0.00 0.00 0.00 0.00 0.00 0.00 0.00 0.00 0.00 0.00 0.00
0.00 0.00 0.00 0.00 0.00 0.00 0.00 0.00 0.00 0.00 0.00 0.00 0.00 0.00 0.00 0.00 0.00 0.00 0.00 0.00 0.00 0.01 0.02 0.03 0.03 0.05 0.09 0.13 0.14 0.12 0.08 0.04 0.02 0.01 0.00 0.00 0.00 0.00 0.00 0.00 0.00 0.00 0.00 0.00
0.00 0.00 0.00 0.00 0.00 0.00 0.00 0.00 0.00 0.00 0.00 0.00 0.00 0.00 0.00 0.00 0.01 0.00 0.00 0.00 0.01 0.01 0.01 0.01 0.01 0.01 0.03 0.05 0.07 0.08 0.07 0.04 0.02 0.00 0.00 0.00 0.00 0.00 0.00 0.00 0.00 0.00 0.00 0.00
0.00 0.00 0.00 0.00 0.00 0.00 0.00 0.00 0.00 0.00 0.00 0.00 0.00 0.00 0.00 0.01 0.01 0.00 0.00 0.01 0.01 0.01 0.01 0.01 0.00 0.01 0.02 0.05 0.08 0.08 0.05 0.03 0.01 0.00 0.00 0.00 0.00 0.00 0.00 0.00 0.00 0.00 0.00 0.00
0.00 0.00 0.00 0.00 0.00 0.00 0.00 0.00 0.00 0.00 0.00 0.00 0.01 0.02 0.03 0.03 0.01 0.01 0.01 0.01 0.01 0.01 0.00 0.00 0.00 0.01 0.05 0.08 0.07 0.05 0.02 0.01 0.00 0.00 0.00 0.00 0.00 0.00 0.00 0.00 0.00 0.00 0.00 0.00
0.00 0.00 0.00 0.00 0.00 0.00 0.00 0.00 0.00 0.00 0.01 0.04 0.08 0.09 0.06 0.05 0.03 0.02 0.02 0.01 0.01 0.00 0.00 0.00 0.01 0.03 0.07 0.06 0.03 0.01 0.00 0.00 0.00 0.00 0.00 0.00 0.00 0.00 0.00 0.00 0.00 0.00 0.00 0.00
0.00 0.00 0.00 0.00 0.00 0.00 0.00 0.00 0.00 0.01 0.04 0.07 0.08 0.06 0.05 0.06 0.06 0.04 0.03 0.02 0.02 0.02 0.01 0.01 0.02 0.04 0.07 0.04 0.01 0.00 0.00 0.00 0.00 0.00 0.00 0.00 0.00 0.00 0.00 0.00 0.00 0.00 0.00 0.00
0.00 0.00 0.00 0.00 0.00 0.00 0.00 0.00 0.00 0.03 0.03 0.02 0.02 0.02 0.04 0.09 0.08 0.04 0.03 0.04 0.04 0.03 0.03 0.04 0.05 0.06 0.05 0.02 0.01 0.00 0.00 0.00 0.00 0.00 0.00 0.00 0.00 0.00 0.00 0.00 0.00 0.00 0.00 0.00
0.00 0.00 0.00 0.00 0.00 0.00 0.00 0.00 0.01 0.04 0.02 0.01 0.03 0.04 0.05 0.06 0.05 0.05 0.07 0.07 0.07 0.07 0.08 0.08 0.06 0.03 0.02 0.01 0.00 0.00 0.00 0.00 0.00 0.00 0.00 0.00 0.00 0.00 0.00 0.00 0.00 0.00 0.00 0.00
MSLP
1013.96 1014.42 1014.80 1015.08 1015.28 1015.40 1015.44 1015.42 1015.31 1015.11 1014.80 1014.37 1013.83 1013.21 1012.54 1011.88 1011.29 1010.81 1010.47 1010.27 1010.21 1010.25 1010.35 1010.47 1010.56 1010.62 1010.62 1010.59 1010.55 1010.51 1010.52 1010.56 1010.65 1010.77 1010.90 1011.02 1011.10 1011.12 1011.07 1010.97 1010.83 1010.66 1010.50 1010.35
1014.56 1014.91 1015.17 1015.35 1015.48 1015.57 1015.63 1015.65 1015.60 1015.47 1015.21 1014.81 1014.26 1013.60 1012.86 1012.12 1011.44 1010.88 1010.49 1010.27 1010.20 1010.25 1010.37 1010.50 1010.60 1010.65 1010.63 1010.57 1010.50 1010.45 1010.45 1010.51 1010.63 1010.79 1010.95 1011.09 1011.17 1011.18 1011.11 1010.98 1010.81 1010.63 1010.47 1010.35
1015.09 1015.30 1015.43 1015.52 1015.58 1015.65 1015.73 1015.81 1015.84 1015.78 1015.59 1015.22 1014.68 1013.99 1013.20 1012.40 1011.65 1011.04 1010.60 1010.36 1010.28 1010.34 1010.46 1010.59 1010.68 1010.70 1010.65 1010.56 1010.46 1010.38 1010.37 1010.44 1010.57 1010.75 1010.93 1011.08 1011.17 1011.17 1011.08 1010.93 1010.75 1010.56 1010.42 1010.33
1015.56 1015.61 1015.62 1015.61 1015.63 1015.70 1015.82 1015.96 1016.08 1016.11 1015.98 1015.66 1015.14 1014.44 1013.62 1012.77 1011.98 1011.32 1010.85 1010.58 1010.49 1010.54 1010.64 1010.74 1010.79 1010.77 1010.67 1010.52 1010.37 1010.27 1010.24 1010.31 1010.46 1010.66 1010.86 1011.03 1011.12 1011.12 1011.03 1010.87 1010.68 1010.51 1010.38 1010.33
1016.01 1015.91 1015.79 1015.71 1015.69 1015.77 1015.95 1016.17 1016.38 1016.49 1016.43 1016.17 1015.67 1014.98 1014.15 1013.28 1012.46 1011.77 1011.27 1010.97 1010.85 1010.85 1010.90 1010.94 1010.92 1010.82 1010.64 1010.43 1010.23 1010.09 1010.05 1010.12 1010.28 1010.51 1010.75 1010.95 1011.06 1011.08 1011.00 1010.85 1010.67 1010.51 1010.40 1010.37
1016.50 1016.26 1016.04 1015.90 1015.86 1015.97 1016.19 1016.49 1016.77 1016.96 1016.97 1016.75 1016.29 1015.61 1014.79 1013.91 1013.07 1012.37 1011.84 1011.50 1011.32 1011.25 1011.22 1011.16 1011.03 1010.83 1010.55 1010.26 1009.99 1009.82 1009.77 1009.85 1010.05 1010.32 1010.61 1010.86 1011.03 1011.09 1011.04 1010.91 1010.75 1010.60 1010.50 1010.46
1017.07 1016.74 1016.44 1016.25 1016.21 1016.34 1016.61 1016.95 1017.29 1017.53 1017.58 1017.39 1016.96 1016.30 1015.49 1014.62 1013.79 1013.08 1012.52 1012.13 1011.87 1011.71 1011.56 1011.38 1011.12 1010.78 1010.39 1010.00 1009.67 1009.46 1009.41 1009.52 1009.77 1010.10 1010.47 1010.80 1011.04 1011.16 1011.17 1011.08 1010.94 1010.79 1010.68 1010.63
1017.77 1017.37 1017.03 1016.82 1016.78 1016.91 1017.20 1017.56 1017.92 1018.17 1018.23 1018.06 1017.64 1017.00 1016.21 1015.37 1014.55 1013.83 1013.24 1012.80 1012.47 1012.19 1011.91 1011.58 1011.17 1010.70 1010.19 1009.70 1009.31 1009.07 1009.02 1009.17 1009.48 1009.89 1010.34 1010.76 1011.09 1011.30 1011.36 1011.32 1011.20 1011.06 1010.92 1010.83
1018.59 1018.16 1017.80 1017.59 1017.55 1017.68 1017.95 1018.30 1018.62 1018.84 1018.88 1018.69 1018.27 1017.64 1016.88 1016.06 1015.27 1014.56 1013.96 1013.47 1013.05 1012.67 1012.26 1011.78 1011.23 1010.62 1010.00 1009.43 1008.98 1008.72 1008.69 1008.87 1009.24 1009.73 1010.26 1010.77 1011.19 1011.47 1011.60 1011.60 1011.50 1011.34 1011.18 1011.03
1019.48 1019.06 1018.73 1018.53 1018.48 1018.59 1018.82 1019.10 1019.36 1019.50 1019.48 1019.24 1018.80 1018.18 1017.44 1016.66 1015.90 1015.21 1014.61 1014.09 1013.61 1013.13 1012.61 1012.01 1011.34 1010.62 1009.91 1009.28 1008.79 1008.52 1008.49 1008.70 1009.12 1009.66 1010.26 1010.83 1011.31 1011.64 1011.82 1011.85 1011.76 1011.59 1011.39 1011.19
1020.38 1020.03 1019.74 1019.56 1019.51 1019.59 1019.75 1019.94 1020.08 1020.12 1020.00 1019.69 1019.21 1018.59 1017.88 1017.14 1016.42 1015.77 1015.18 1014.64 1014.12 1013.58 1012.98 1012.30 1011.55 1010.77 1010.01 1009.35 1008.85 1008.57 1008.55 1008.76 1009.18 1009.74 1010.35 1010.94 1011.44 1011.79 1011.98 1012.02 1011.93 1011.75 1011.51 1011.26
1021.25 1020.99 1020.77 1020.63 1020.57 1020.60 1020.67 1020.74 1020.76 1020.67 1020.44 1020.05 1019.52 1018.89 1018.20 1017.50 1016.82 1016.20 1015.64 1015.11 1014.58 1014.02 1013.39 1012.68 1011.91 1011.11 1010.36 1009.70 1009.21 1008.93 1008.90 1009.09 1009.48 1009.99 1010.56 1011.10 1011.57 1011.90 1012.07 1012.10 1012.00 1011.80 1011.54 1011.25
1022.07 1021.91 1021.76 1021.66 1021.60 1021.57 1021.55 1021.50 1021.38 1021.15 1020.80 1020.33 1019.75 1019.10 1018.42 1017.74 1017.11 1016.52 1015.99 1015.48 1014.96 1014.41 1013.80 1013.11 1012.38 1011.64 1010.93 1010.32 1009.86 1009.59 1009.54 1009.68 1009.99 1010.41 1010.88 1011.32 1011.70 1011.96 1012.08 1012.08 1011.96 1011.76 1011.50 1011.21
1022.84 1022.78 1022.71 1022.64 1022.57 1022.49 1022.37 1022.20 1021.94 1021.58 1021.11 1020.55 1019.91 1019.23 1018.55 1017.89 1017.27 1016.71 1016.20 1015.71 1015.22 1014.71 1014.15 1013.54 1012.90 1012.26 1011.66 1011.14 1010.74 1010.49 1010.42 1010.50 1010.70 1010.98 1011.30 1011.60 1011.85 1012.00 1012.06 1012.02 1011.89 1011.69 1011.45 1011.18
1023.61 1023.63 1023.62 1023.57 1023.47 1023.32 1023.11 1022.82 1022.43 1021.94 1021.37 1020.72 1020.02 1019.30 1018.59 1017.91 1017.29 1016.73 1016.22 1015.75 1015.29 1014.84 1014.36 1013.87 1013.37 1012.88 1012.42 1012.03 1011.72 1011.52 1011.43 1011.43 1011.52 1011.65 1011.79 1011.93 1012.03 1012.07 1012.05 1011.97 1011.84 1011.67 1011.47 1011.25
1024.43 1024.51 1024.51 1024.45 1024.31 1024.08 1023.76 1023.35 1022.84 1022.23 1021.56 1020.82 1020.05 1019.27 1018.51 1017.79 1017.14 1016.54 1016.02 1015.54 1015.12 1014.72 1014.35 1014.00 1013.67 1013.36 1013.08 1012.85 1012.66 1012.53 1012.44 1012.39 1012.36 1012.35 1012.33 1012.30 1012.25 1012.19 1012.10 1012.00 1011.89 1011.76 1011.63 1011.48
1025.35 1025.43 1025.41 1025.29 1025.07 1024.74 1024.31 1023.77 1023.14 1022.43 1021.65 1020.82 1019.97 1019.12 1018.29 1017.50 1016.78 1016.13 1015.55 1015.06 1014.65 1014.32 1014.06 1013.86 1013.71 1013.61 1013.54 1013.49 1013.45 1013.41 1013.35 1013.27 1013.16 1013.03 1012.87 1012.71 1012.55 1012.40 1012.27 1012.17 1012.09 1012.02 1011.95 1011.88
1026.35 1026.38 1026.29 1026.07 1025.73 1025.28 1024.72 1024.05 1023.30 1022.48 1021.60 1020.69 1019.75 1018.82 1017.90 1017.03 1016.22 1015.49 1014.85 1014.33 1013.93 1013.65 1013.49 1013.45 1013.49 1013.60 1013.75 1013.90 1014.02 1014.09 1014.09 1014.01 1013.86 1013.65 1013.40 1013.15 1012.91 1012.72 1012.57 1012.48 1012.44 1012.44 1012.44 1012.43
1027.37 1027.31 1027.09 1026.74 1026.26 1025.66 1024.95 1024.16 1023.29 1022.37 1021.40 1020.40 1019.39 1018.37 1017.37 1016.41 1015.50 1014.69 1014.00 1013.44 1013.04 1012.82 1012.76 1012.86 1013.09 1013.40 1013.75 1014.09 1014.38 1014.57 1014.65 1014.60 1014.45 1014.21 1013.92 1013.62 1013.34 1013.13 1012.99 1012.93 1012.94 1012.98 1013.04 1013.08
1028.30 1028.09 1027.73 1027.22 1026.58 1025.83 1024.98 1024.07 1023.10 1022.09 1021.05 1019.99 1018.91 1017.82 1016.75 1015.72 1014.74 1013.87 1013.13 1012.55 1012.17 1012.00 1012.04 1012.27 1012.65 1013.14 1013.66 1014.17 1014.61 1014.92 1015.08 1015.08 1014.95 1014.71 1014.41 1014.09 1013.82 1013.61 1013.49 1013.46 1013.50 1013.58 1013.67 1013.72
1028.97 1028.62 1028.10 1027.43 1026.64 1025.75 1024.79 1023.78 1022.73 1021.67 1020.58 1019.49 1018.38 1017.26 1016.15 1015.08 1014.08 1013.17 1012.42 1011.85 1011.50 1011.38 1011.51 1011.85 1012.36 1012.99 1013.65 1014.28 1014.83 1015.22 1015.45 1015.50 1015.39 1015.17 1014.88 1014.58 1014.31 1014.12 1014.03 1014.02 1014.07 1014.16 1014.25 1014.29
1029.28 1028.79 1028.12 1027.32 1026.40 1025.41 1024.37 1023.30 1022.23 1021.15 1020.07 1018.99 1017.89 1016.79 1015.70 1014.64 1013.65 1012.76 1012.04 1011.51 1011.21 1011.16 1011.37 1011.79 1012.39 1013.10 1013.84 1014.54 1015.14 1015.58 1015.83 1015.90 1015.81 1015.60 1015.32 1015.04 1014.79 1014.62 1014.53 1014.53 1014.58 1014.66 1014.71 1014.71
1029.14 1028.52 1027.75 1026.85 1025.86 1024.83 1023.77 1022.71 1021.67 1020.63 1019.61 1018.58 1017.55 1016.52 1015.50 1014.51 1013.58 1012.77 1012.11 1011.66 1011.43 1011.45 1011.72 1012.20 1012.84 1013.57 1014.33 1015.03 1015.62 1016.04 1016.27 1016.33 1016.22 1016.01 1015.74 1015.46 1015.22 1015.05 1014.97 1014.95 1014.98 1015.02 1015.03 1014.98
1028.55 1027.85 1027.01 1026.08 1025.09 1024.08 1023.07 1022.08 1021.13 1020.19 1019.28 1018.37 1017.45 1016.54 1015.63 1014.76 1013.95 1013.25 1012.69 1012.33 1012.19 1012.27 1012.58 1013.07 1013.70 1014.40 1015.11 1015.74 1016.25 1016.60 1016.76 1016.76 1016.62 1016.38 1016.09 1015.81 1015.57 1015.41 1015.31 1015.27 1015.26 1015.25 1015.20 1015.09
1027.58 1026.83 1025.99 1025.09 1024.16 1023.25 1022.36 1021.51 1020.70 1019.93 1019.17 1018.41 1017.65 1016.89 1016.14 1015.41 1014.74 1014.18 1013.75 1013.49 1013.42 1013.55 1013.87 1014.34 1014.91 1015.52 1016.11 1016.61 1016.99 1017.21 1017.27 1017.18 1016.96 1016.68 1016.37 1016.08 1015.84 1015.66 1015.55 1015.49 1015.44 1015.38 1015.28 1015.10
1026.38 1025.64 1024.84 1024.03 1023.23 1022.47 1021.76 1021.10 1020.49 1019.90 1019.33 1018.75 1018.17 1017.58 1016.99 1016.42 1015.90 1015.47 1015.16 1014.99 1014.98 1015.14 1015.43 1015.84 1016.30 1016.77 1017.20 1017.53 1017.74 1017.81 1017.72 1017.52 1017.23 1016.90 1016.57 1016.27 1016.02 1015.84 1015.72 1015.63 1015.56 1015.45 1015.30 1015.08
Thickness
5676 5665 5661 5664 5664 5664 5660 5655 5650 5655 5665 5665 5665 5668 5683 5694 5686 5681 5679 5674 5669 5668 5666 5663 5658 5650 5644 5640 5637 5633 5627 5623 5620 5616 5612 5607 5604 5602 5602 5602 5602 5601 5600 5601
5659 5658 5664 5664 5664 5659 5654 5649 5647 5653 5658 5658 5655 5658 5672 5677 5676 5675 5670 5664 5660 5657 5654 5650 5644 5636 5631 5626 5621 5617 5613 5609 5606 5602 5598 5593 5589 5587 5587 5587 5589 5588 5587 5587
5655 5657 5662 5661 5656 5651 5649 5645 5644 5643 5644 5646 5645 5651 5661 5671 5668 5664 5656 5650 5645 5643 5640 5636 5630 5621 5614 5609 5606 5604 5600 5596 5592 5589 5584 5581 5578 5575 5574 5573 5573 5574 5574 5574
5651 5652 5654 5652 5649 5645 5637 5646 5641 5637 5627 5623 5630 5623 5638 5644 5641 5643 5636 5633 5630 5625 5623 5620 5614 5607 5600 5597 5594 5591 5587 5583 5578 5574 5571 5567 5564 5561 5560 5558 5557 5559 5560 5561
5642 5641 5643 5643 5642 5642 5638 5640 5634 5630 5623 5614 5614 5608 5620 5623 5628 5623 5615 5614 5614 5609 5605 5603 5598 5593 5589 5585 5580 5577 5572 5568 5564 5559 5557 5554 5550 5548 5546 5544 5544 5545 5547 5548
5635 5638 5639 5637 5639 5635 5631 5628 5625 5610 5604 5603 5609 5596 5604 5606 5610 5601 5596 5595 5594 5591 5591 5589 5584 5578 5574 5568 5564 5561 5557 5554 5550 5545 5542 5540 5538 5536 5535 5533 5532 5533 5535 5536
5619 5629 5632 5633 5630 5625 5616 5607 5597 5596 5590 5594 5596 5588 5592 5599 5593 5585 5576 5572 5570 5568 5570 5571 5568 5563 5558 5553 5549 5546 5543 5541 5538 5533 5530 5528 5526 5524 5522 5520 5519 5520 5521 5523
5603 5608 5621 5622 5618 5611 5603 5594 5581 5570 5567 5570 5578 5578 5586 5585 5575 5568 5559 5553 5551 5551 5550 5549 5549 5547 5544 5540 5537 5534 5531 5529 5527 5523 5518 5516 5513 5510 5508 5507 5505 5505 5507 5509
5596 5600 5612 5610 5608 5602 5592 5577 5568 5552 5541 5533 5554 5557 5563 5573 5557 5546 5540 5537 5534 5532 5530 5528 5528 5529 5529 5527 5525 5522 5519 5517 5516 5512 5506 5501 5498 5495 5492 5491 5490 5490 5492 5497
5590 5584 5593 5592 5595 5588 5577 5559 5536 5533 5524 5524 5534 5539 5542 5541 5517 5514 5508 5502 5502 5505 5506 5508 5510 5510 5512 5513 5513 5510 5507 5507 5505 5501 5495 5488 5483 5479 5477 5477 5477 5478 5481 5484
5574 5569 5571 5573 5574 5568 5559 5548 5533 5510 5493 5490 5497 5541 5534 5508 5490 5482 5479 5478 5478 5480 5482 5485 5490 5495 5498 5500 5500 5498 5495 5493 5490 5486 5481 5475 5469 5465 5464 5464 5465 5467 5469 5472
5557 5549 5541 5550 5555 5549 5543 5529 5508 5493 5485 5470 5462 5507 5514 5489 5481 5467 5460 5462 5460 5459 5460 5464 5470 5477 5485 5490 5491 5486 5480 5477 5473 5468 5465 5459 5453 5450 5451 5452 5453 5455 5458 5461
5553 5537 5532 5538 5538 5522 5514 5505 5494 5478 5463 5464 5456 5473 5496 5483 5472 5457 5445 5444 5442 5440 5443 5446 5451 5458 5466 5475 5476 5469 5464 5459 5455 5451 5449 5441 5435 5435 5437 5439 5441 5444 5447 5450
5544 5524 5519 5519 5516 5496 5490 5486 5480 5463 5443 5441 5440 5445 5457 5448 5440 5437 5434 5429 5423 5422 5422 5421 5422 5425 5431 5440 5444 5444 5442 5440 5440 5437 5431 5425 5423 5425 5427 5428 5430 5433 5436 5438
5517 5505 5503 5499 5493 5482 5473 5471 5468 5452 5436 5419 5427 5428 5432 5423 5414 5411 5410 5410 5411 5408 5405 5399 5395 5395 5399 5406 5413 5419 5421 5421 5423 5420 5416 5414 5414 5417 5418 5418 5420 5422 5424 5426
5494 5487 5481 5479 5481 5468 5460 5461 5453 5443 5432 5419 5413 5413 5417 5406 5398 5396 5397 5396 5398 5398 5394 5389 5383 5379 5380 5385 5391 5397 5401 5402 5403 5404 5404 5404 5405 5406 5407 5408 5410 5412 5412 5414
5474 5466 5457 5449 5451 5452 5445 5448 5443 5429 5419 5403 5391 5395 5401 5393 5390 5390 5386 5386 5389 5390 5388 5384 5379 5374 5373 5374 5377 5380 5383 5386 5387 5390 5392 5393 5394 5395 5396 5398 5398 5399 5400 5401
5458 5449 5439 5430 5427 5414 5432 5429 5415 5407 5414 5401 5392 5393 5388 5383 5383 5386 5380 5376 5380 5383 5384 5383 5378 5372 5369 5368 5367 5368 5368 5370 5373 5376 5379 5380 5381 5382 5384 5385 5385 5385 5386 5385
5448 5438 5420 5403 5387 5390 5416 5413 5406 5388 5404 5401 5391 5388 5384 5380 5375 5388 5383 5373 5371 5374 5377 5378 5374 5367 5360 5357 5356 5356 5356 5356 5359 5361 5365 5367 5368 5370 5372 5372 5371 5371 5370 5369
5432 5419 5402 5369 5360 5368 5401 5404 5391 5378 5387 5397 5387 5380 5377 5370 5357 5370 5372 5365 5364 5367 5371 5371 5362 5354 5349 5346 5345 5344 5343 5343 5345 5348 5352 5354 5356 5358 5358 5358 5357 5356 5354 5352
5416 5402 5377 5357 5338 5360 5381 5380 5372 5357 5368 5386 5382 5374 5366 5356 5347 5348 5349 5351 5353 5358 5360 5355 5347 5341 5337 5335 5334 5334 5332 5332 5334 5338 5341 5341 5341 5344 5343 5342 5342 5340 5338 5336
5394 5377 5363 5347 5326 5344 5373 5369 5359 5363 5377 5374 5369 5361 5352 5348 5345 5342 5338 5338 5341 5347 5343 5337 5333 5328 5324 5323 5322 5321 5320 5321 5324 5327 5327 5327 5327 5329 5329 5328 5326 5324 5322 5320
5379 5370 5359 5355 5363 5375 5377 5371 5370 5369 5368 5364 5358 5352 5345 5342 5339 5336 5333 5332 5334 5338 5333 5328 5324 5318 5313 5311 5310 5308 5309 5311 5313 5314 5315 5315 5316 5314 5314 5313 5311 5309 5307 5304
5368 5366 5355 5356 5368 5372 5375 5375 5370 5365 5358 5354 5350 5349 5347 5345 5343 5339 5336 5334 5334 5330 5324 5320 5315 5310 5304 5299 5298 5297 5298 5300 5302 5303 5304 5305 5303 5301 5299 5299 5299 5295 5292 5289
5360 5359 5351 5351 5364 5365 5369 5368 5364 5356 5351 5351 5351 5350 5351 5349 5347 5342 5339 5336 5330 5322 5316 5310 5304 5297 5291 5289 5286 5286 5287 5289 5290 5291 5293 5293 5291 5287 5285 5285 5283 5282 5278 5278
5356 5353 5346 5354 5361 5356 5361 5361 5350 5344 5344 5346 5347 5353 5349 5343 5340 5335 5327 5319 5312 5305 5299 5293 5287 5283 5279 5276 5274 5274 5277 5279 5280 5282 5282 5282 5279 5276 5274 5272 5270 5267 5266 5266